• în România
  • Lista ţărilor
  • Pe 7 zile
  • Temperatura apei
  • Hartă satelitară
  • Meteo pe hartă
  • Widget-uri
  • user-avatar
    Intrare

    Meteo pe oră la Klagenfurt

    Astăzi, 23 Iunie, Vineri

    Timp Temperatura Precipitaţii Vânt Presiune Umiditate
    00:00 +18°C° 0 mm 1 m/s 691 mmHg 88%
    01:00 +18°C° 0 mm 1 m/s 691 mmHg 88%
    02:00 +18°C° 0 mm 1 m/s 690 mmHg 88%
    03:00 +16°C° 0 mm 1 m/s 690 mmHg 88%
    04:00 +16°C° 0 mm 1 m/s 690 mmHg 88%
    05:00 +19°C° 0 mm 1 m/s 690 mmHg 82%
    06:00 +21°C° 0 mm 1 m/s 691 mmHg 76%
    07:00 +23°C° 0 mm 1 m/s 691 mmHg 71%
    08:00 +25°C° 0 mm 1 m/s 692 mmHg 63%
    09:00 +27°C° 0 mm 2 m/s 692 mmHg 55%
    10:00 +29°C° 0 mm 2 m/s 693 mmHg 46%
    11:00 +30°C° 0 mm 2 m/s 693 mmHg 44%
    12:00 +30°C° 0 mm 2 m/s 693 mmHg 41%
    13:00 +31°C° 0 mm 2 m/s 693 mmHg 38%
    14:00 +31°C° 0,1 mm 2 m/s 693 mmHg 41%
    15:00 +30°C° 0,1 mm 2 m/s 692 mmHg 45%
    16:00 +30°C° 0,1 mm 2 m/s 692 mmHg 48%
    17:00 +28°C° 0,1 mm 2 m/s 692 mmHg 57%
    18:00 +26°C° 0,1 mm 1 m/s 692 mmHg 66%
    19:00 +24°C° 0,1 mm 1 m/s 692 mmHg 75%
    20:00 +22°C° 0 mm 1 m/s 691 mmHg 80%
    21:00 +20°C° 0 mm 1 m/s 691 mmHg 84%
    22:00 +18°C° 0 mm 1 m/s 691 mmHg 89%
    23:00 +18°C° 0 mm 1 m/s 691 mmHg 90%

    Mâine, 24 Iunie, Sâmbătă

    Timp Temperatura Precipitaţii Vânt Presiune Umiditate
    00:00 +16°C° 0 mm 1 m/s 691 mmHg 90%
    01:00 +15°C° 0 mm 1 m/s 691 mmHg 91%
    02:00 +15°C° 0,1 mm 1 m/s 691 mmHg 92%
    03:00 +15°C° 0,1 mm 1 m/s 691 mmHg 93%
    04:00 +14°C° 0,1 mm 1 m/s 691 mmHg 93%
    05:00 +18°C° 0 mm 1 m/s 692 mmHg 88%
    06:00 +20°C° 0 mm 1 m/s 692 mmHg 82%
    07:00 +22°C° 0 mm 1 m/s 693 mmHg 77%
    08:00 +23°C° 0 mm 1 m/s 693 mmHg 71%
    09:00 +25°C° 0 mm 1 m/s 693 mmHg 66%
    10:00 +26°C° 0 mm 1 m/s 693 mmHg 60%
    11:00 +27°C° 0,3 mm 1 m/s 693 mmHg 59%
    12:00 +27°C° 0,3 mm 1 m/s 693 mmHg 58%
    13:00 +28°C° 0,3 mm 1 m/s 693 mmHg 56%
    14:00 +28°C° 0,6 mm 2 m/s 692 mmHg 58%
    15:00 +28°C° 0,6 mm 2 m/s 692 mmHg 60%
    16:00 +27°C° 0,6 mm 2 m/s 692 mmHg 62%
    17:00 +26°C° 0,5 mm 1 m/s 691 mmHg 69%
    18:00 +25°C° 0,5 mm 1 m/s 691 mmHg 77%
    19:00 +24°C° 0,5 mm 1 m/s 691 mmHg 85%
    20:00 +22°C° 1,1 mm 1 m/s 691 mmHg 88%
    21:00 +20°C° 1,1 mm 1 m/s 690 mmHg 91%
    22:00 +18°C° 1,1 mm 1 m/s 690 mmHg 94%
    23:00 +18°C° 0,5 mm 1 m/s 690 mmHg 94%

    Poimâine, 25 Iunie, Duminică

    Timp Temperatura Precipitaţii Vânt Presiune Umiditate
    00:00 +18°C° 0,5 mm 1 m/s 690 mmHg 94%
    01:00 +18°C° 0,5 mm 1 m/s 690 mmHg 94%
    02:00 +18°C° 1,1 mm 1 m/s 690 mmHg 94%
    03:00 +16°C° 1,1 mm 1 m/s 690 mmHg 94%
    04:00 +16°C° 1,1 mm 1 m/s 689 mmHg 94%
    05:00 +19°C° 1,9 mm 1 m/s 690 mmHg 91%
    06:00 +20°C° 1,9 mm 1 m/s 690 mmHg 89%
    07:00 +21°C° 1,9 mm 1 m/s 690 mmHg 87%
    08:00 +22°C° 2,2 mm 1 m/s 691 mmHg 86%
    09:00 +22°C° 2,2 mm 1 m/s 691 mmHg 85%
    10:00 +23°C° 2,2 mm 1 m/s 691 mmHg 83%
    11:00 +22°C° 3,1 mm 1 m/s 691 mmHg 84%
    12:00 +22°C° 3,1 mm 1 m/s 691 mmHg 85%
    13:00 +22°C° 3,1 mm 1 m/s 690 mmHg 86%
    14:00 +22°C° 2 mm 1 m/s 690 mmHg 87%
    15:00 +21°C° 2 mm 1 m/s 690 mmHg 87%
    16:00 +21°C° 2 mm 1 m/s 690 mmHg 87%
    17:00 +21°C° 0,6 mm 1 m/s 690 mmHg 89%
    18:00 +20°C° 0,6 mm 1 m/s 690 mmHg 90%
    19:00 +20°C° 0,6 mm 1 m/s 690 mmHg 92%
    20:00 +18°C° 0,2 mm 1 m/s 690 mmHg 93%
    21:00 +16°C° 0,2 mm 1 m/s 690 mmHg 94%
    22:00 +14°C° 0,2 mm 1 m/s 691 mmHg 95%
    23:00 +14°C° 0,1 mm 1 m/s 690 mmHg 95%

    26 Iunie, Luni

    Timp Temperatura Precipitaţii Vânt Presiune Umiditate
    00:00 +14°C° 0,1 mm 1 m/s 690 mmHg 95%
    01:00 +14°C° 0,1 mm 1 m/s 690 mmHg 95%
    02:00 +13°C° 0 mm 1 m/s 690 mmHg 95%
    03:00 +13°C° 0 mm 1 m/s 690 mmHg 94%
    04:00 +12°C° 0 mm 1 m/s 690 mmHg 94%
    05:00 +14°C° 0 mm 1 m/s 690 mmHg 90%
    06:00 +16°C° 0 mm 1 m/s 691 mmHg 86%
    07:00 +19°C° 0 mm 1 m/s 692 mmHg 83%
    08:00 +21°C° 0 mm 1 m/s 692 mmHg 73%
    09:00 +21°C° 0 mm 2 m/s 692 mmHg 63%
    10:00 +24°C° 0 mm 2 m/s 692 mmHg 54%
    11:00 +24°C° 0 mm 2 m/s 692 mmHg 53%
    12:00 +25°C° 0 mm 2 m/s 692 mmHg 51%
    13:00 +26°C° 0 mm 2 m/s 692 mmHg 50%
    14:00 +26°C° 0 mm 2 m/s 692 mmHg 52%
    15:00 +26°C° 0 mm 2 m/s 691 mmHg 54%
    16:00 +26°C° 0 mm 2 m/s 691 mmHg 55%
    17:00 +24°C° 0 mm 1 m/s 691 mmHg 64%
    18:00 +23°C° 0 mm 1 m/s 690 mmHg 72%
    19:00 +22°C° 0 mm 1 m/s 690 mmHg 81%
    20:00 +20°C° 0 mm 1 m/s 690 mmHg 85%
    21:00 +18°C° 0 mm 1 m/s 690 mmHg 89%
    22:00 +15°C° 0 mm 1 m/s 689 mmHg 94%
    23:00 +15°C° 0 mm 1 m/s 689 mmHg 94%

    27 Iunie, Marţi

    Timp Temperatura Precipitaţii Vânt Presiune Umiditate
    00:00 +14°C° 0 mm 1 m/s 689 mmHg 95%
    01:00 +14°C° 0 mm 1 m/s 688 mmHg 95%
    02:00 +14°C° 0 mm 1 m/s 688 mmHg 96%
    03:00 +14°C° 0 mm 1 m/s 688 mmHg 96%
    04:00 +14°C° 0 mm 1 m/s 687 mmHg 96%
    05:00 +16°C° 0 mm 1 m/s 688 mmHg 91%
    06:00 +19°C° 0 mm 1 m/s 688 mmHg 87%
    07:00 +21°C° 0 mm 1 m/s 689 mmHg 82%
    08:00 +23°C° 0 mm 1 m/s 689 mmHg 73%
    09:00 +25°C° 0 mm 2 m/s 689 mmHg 64%
    10:00 +26°C° 0 mm 2 m/s 689 mmHg 55%
    11:00 +27°C° 0,1 mm 3 m/s 689 mmHg 53%
    12:00 +28°C° 0,1 mm 3 m/s 689 mmHg 50%
    13:00 +29°C° 0,1 mm 3 m/s 689 mmHg 48%
    14:00 +28°C° 0,2 mm 3 m/s 689 mmHg 49%
    15:00 +28°C° 0,2 mm 3 m/s 688 mmHg 49%
    16:00 +28°C° 0,2 mm 4 m/s 688 mmHg 50%
    17:00 +26°C° 0 mm 3 m/s 688 mmHg 58%
    18:00 +25°C° 0 mm 2 m/s 687 mmHg 67%
    19:00 +23°C° 0 mm 1 m/s 687 mmHg 75%
    20:00 +21°C° 0 mm 1 m/s 687 mmHg 79%
    21:00 +20°C° 0 mm 1 m/s 687 mmHg 83%
    22:00 +18°C° 0 mm 1 m/s 687 mmHg 87%
    23:00 +18°C° 0,1 mm 1 m/s 686 mmHg 88%

    28 Iunie, Miercuri

    Timp Temperatura Precipitaţii Vânt Presiune Umiditate
    00:00 +16°C° 0,1 mm 1 m/s 686 mmHg 88%
    01:00 +16°C° 0,1 mm 1 m/s 686 mmHg 89%
    02:00 +15°C° 0,1 mm 1 m/s 686 mmHg 90%
    03:00 +15°C° 0,1 mm 1 m/s 685 mmHg 90%
    04:00 +14°C° 0,1 mm 0 m/s 685 mmHg 91%
    05:00 +18°C° 0 mm 1 m/s 686 mmHg 84%
    06:00 +20°C° 0 mm 1 m/s 686 mmHg 78%
    07:00 +22°C° 0 mm 1 m/s 686 mmHg 71%
    08:00 +24°C° 0 mm 1 m/s 686 mmHg 66%
    09:00 +25°C° 0 mm 2 m/s 686 mmHg 60%
    10:00 +26°C° 0 mm 3 m/s 686 mmHg 54%
    11:00 +27°C° 0,1 mm 3 m/s 686 mmHg 53%
    12:00 +28°C° 0,1 mm 4 m/s 686 mmHg 51%
    13:00 +28°C° 0,1 mm 4 m/s 685 mmHg 49%
    14:00 +28°C° 0,1 mm 4 m/s 685 mmHg 49%
    15:00 +28°C° 0,1 mm 5 m/s 684 mmHg 48%
    16:00 +27°C° 0,1 mm 5 m/s 684 mmHg 48%
    17:00 +26°C° 0,1 mm 4 m/s 683 mmHg 56%
    18:00 +24°C° 0,1 mm 3 m/s 683 mmHg 65%
    19:00 +23°C° 0,1 mm 2 m/s 682 mmHg 74%
    20:00 +20°C° 0,5 mm 2 m/s 682 mmHg 78%
    21:00 +19°C° 0,5 mm 2 m/s 681 mmHg 82%
    22:00 +17°C° 0,5 mm 2 m/s 681 mmHg 87%
    23:00 +16°C° 1 mm 1 m/s 681 mmHg 89%
    Arată mai mult